Location: Agadir-Ikarkaouin
(31.1503°N, 9.0246°W)
Time: 03:48:46
(UTC+00:00)

SJ 16-02 - Pass Details

Date: 18 September 2020
Orbit: 606 x 616 km, 75.0° (Epoch: 23 October)

Event Time Altitude Azimuth Distance (km) Brightness Sun altitude
Rises 19:31:48 0° 233° (SW) 2,853 5.5 -12.4°
Reaches altitude 10° 19:34:49 10° 256° (WSW) 1,952 5.0 -13.0°
Maximum altitude 19:37:28 16° 293° (WNW) 1,614 4.7 -13.6°
Drops below altitude 10° 19:40:07 10° 331° (NNW) 1,957 4.5 -14.2°
Sets 19:43:10 0° 354° (N) 2,864 5.0 -14.8°
